CW4845 Weather Reports


Display with metric or nautical units.
time (UTC)temp
F
wind
direction
speed
MPH
gust
MPH
rain 1hr
in
rain 24hr
in
rain mn
in
humidity
%
barometer
mb
20260905095441 75 315 7.0 13.0 0.00 0.00 0.00 70 1008.5
20260905094920 75 294 8.0 13.0 0.00 0.00 0.00 70 1008.5
20260905094402 76 336 7.0 12.0 0.00 0.00 0.00 69 1008.3
20260905093904 76 328 5.0 10.0 0.00 0.00 0.00 69 1008.3
20260905093349 76 331 5.0 9.0 0.00 0.00 0.00 69 1008.3
20260905092847 76 340 5.0 10.0 0.00 0.00 0.00 68 1008.3
20260905092348 76 340 5.0 10.0 0.00 0.00 0.00 68 1008.3
20260905091834 76 340 4.0 7.0 0.00 0.00 0.00 68 1008.3
20260905091336 76 313 4.0 7.0 0.00 0.00 0.00 68 1008.4
20260905090829 76 344 5.0 10.0 0.00 0.00 0.00 68 1008.4
20260905090330 76 298 5.0 10.0 0.00 0.00 0.00 68 1008.4
20260905085818 76 328 5.0 9.0 0.00 0.00 0.00 68 1008.4
20260905085318 76 312 5.0 11.0 0.00 0.00 0.00 67 1008.4
20260905084808 76 347 5.0 11.0 0.00 0.00 0.00 67 1008.4
20260905084300 76 326 4.0 9.0 0.00 0.00 0.00 67 1008.4
20260905083800 76 340 4.0 7.0 0.00 0.00 0.00 67 1008.4
20260905083249 76 296 5.0 8.0 0.00 0.00 0.00 67 1008.4
20260905082751 76 328 4.0 8.0 0.00 0.00 0.00 66 1008.5
20260905082233 76 315 5.0 9.0 0.00 0.00 0.00 66 1008.5
20260905081721 76 338 5.0 9.0 0.00 0.00 0.00 66 1008.5
20260905081219 76 318 5.0 10.0 0.00 0.00 0.00 67 1008.5
20260905080722 76 328 5.0 10.0 0.00 0.00 0.00 67 1008.5
20260905080219 76 354 5.0 8.0 0.00 0.00 0.00 67 1008.5
20260905075720 76 342 5.0 7.0 0.00 0.00 0.00 67 1008.5
20260905075432 77 346 5.0 7.0 0.00 0.00 0.00 66 1008.5
20260905074703 77 317 5.0 7.0 0.00 0.00 0.00 66 1008.5
20260905074204 77 334 5.0 9.0 0.00 0.00 0.00 65 1008.5
20260905073903 77 326 5.0 9.0 0.00 0.00 0.00 66 1008.5
20260905073119 77 328 4.0 9.0 0.00 0.00 0.00 66 1008.5
20260905072619 77 351 5.0 9.0 0.00 0.00 0.00 66 1008.5
20260905072118 77 332 5.0 9.0 0.00 0.00 0.00 66 1008.5
20260905071617 77 328 6.0 10.0 0.00 0.00 0.00 66 1008.5
20260905071337 77 338 6.0 10.0 0.00 0.00 0.00 65 1008.5
20260905070817 77 340 6.0 10.0 0.00 0.00 0.00 66 1008.5
20260905070055 77 351 6.0 11.0 0.00 0.00 0.00 66 1008.5
20260905065539 77 323 6.0 11.0 0.00 0.00 0.00 66 1008.5
20260905065042 77 355 7.0 10.0 0.00 0.00 0.00 66 1008.5
20260905064515 77 344 7.0 11.0 0.00 0.00 0.00 65 1008.5
20260905064011 78 338 7.0 12.0 0.00 0.00 0.00 66 1008.5
20260905063443 78 350 8.0 12.0 0.00 0.00 0.00 66 1008.5
20260905062918 78 333 7.0 12.0 0.00 0.00 0.00 65 1008.7
20260905062351 78 355 7.0 14.0 0.00 0.00 0.00 65 1008.7
20260905061847 78 348 8.0 14.0 0.00 0.00 0.00 64 1008.7
20260905061344 78 1 8.0 13.0 0.00 0.00 0.00 65 1008.6
20260905060816 78 349 7.0 13.0 0.00 0.00 0.00 64 1008.6
20260905060314 78 334 7.0 12.0 0.00 0.00 0.00 64 1008.6
20260905055747 78 352 7.0 13.0 0.00 0.01 0.00 64 1008.9
20260905055243 78 358 7.0 13.0 0.00 0.01 0.00 63 1008.9
20260905054741 78 0 6.0 11.0 0.00 0.02 0.00 64 1008.9
20260905054503 78 353 6.0 13.0 0.00 0.02 0.00 63 1008.9
20260905053936 78 357 7.0 13.0 0.00 0.02 0.00 63 1008.9
20260905053152 78 355 8.0 12.0 0.00 0.02 0.00 63 1008.9
20260905052653 79 347 7.0 12.0 0.00 0.02 0.00 63 1009.0
20260905052154 79 358 6.0 11.0 0.00 0.02 0.00 64 1009.0
20260905051642 79 343 7.0 12.0 0.00 0.02 0.00 63 1009.0
20260905051145 79 344 8.0 12.0 0.00 0.02 0.00 62 1009.2
20260905050623 79 8 7.0 11.0 0.00 0.02 0.00 62 1009.2
20260905050322 79 356 7.0 11.0 0.00 0.02 0.00 63 1009.2
20260905045539 79 356 8.0 14.0 0.00 0.02 0.00 62 1009.4
20260905045025 80 359 7.0 14.0 0.00 0.02 0.00 61 1009.4
20260905044512 80 348 6.0 13.0 0.00 0.02 0.00 61 1009.4
20260905044246 80 347 6.0 13.0 0.00 0.02 0.00 62 1009.6
20260905043454 80 330 7.0 12.0 0.00 0.02 0.00 62 1009.6
20260905042924 80 359 8.0 13.0 0.00 0.02 0.00 62 1009.6
20260905042421 80 335 6.0 10.0 0.00 0.02 0.00 63 1009.6
20260905041920 80 312 6.0 11.0 0.00 0.02 0.00 64 1009.6
20260905041411 80 309 6.0 11.0 0.00 0.02 0.00 64 1009.6
20260905040913 80 330 7.0 11.0 0.00 0.02 0.00 64 1009.6
20260905040404 80 0 6.0 11.0 0.00 0.02 0.00 64 1009.6
20260905035903 80 346 5.0 11.0 0.00 0.02 0.02 65 1009.6
20260905035405 80 359 5.0 9.0 0.00 0.02 0.02 65 1009.6
20260905034902 81 341 5.0 9.0 0.00 0.02 0.02 65 1009.6
20260905034400 81 0 5.0 7.0 0.00 0.02 0.02 65 1009.5
20260905033859 81 353 5.0 9.0 0.00 0.02 0.02 65 1009.5
20260905033359 81 333 5.0 9.0 0.00 0.02 0.02 66 1009.5
20260905032901 81 346 5.0 9.0 0.00 0.02 0.02 65 1009.5
20260905032340 81 351 5.0 9.0 0.00 0.02 0.02 64 1009.5
20260905031843 81 320 5.0 8.0 0.00 0.02 0.02 64 1009.5
20260905031335 81 302 5.0 8.0 0.00 0.02 0.02 65 1009.5
20260905031051 81 320 5.0 9.0 0.00 0.02 0.02 64 1009.5
20260905030331 81 324 4.0 9.0 0.00 0.02 0.02 64 1009.5
20260905025831 81 318 4.0 8.0 0.00 0.02 0.02 65 1009.4
20260905025553 81 348 4.0 8.0 0.00 0.02 0.02 65 1009.4
20260905024831 82 317 4.0 7.0 0.00 0.02 0.02 66 1009.4
20260905024322 82 338 5.0 9.0 0.00 0.02 0.02 65 1009.4
20260905023821 82 334 5.0 9.0 0.00 0.02 0.02 65 1009.4
20260905023322 82 326 5.0 9.0 0.00 0.02 0.02 65 1009.4
20260905022813 82 321 5.0 9.0 0.00 0.02 0.02 64 1009.4
20260905022537 82 352 5.0 10.0 0.00 0.02 0.02 65 1009.4
20260905021812 82 348 5.0 10.0 0.00 0.02 0.02 65 1009.4
20260905021302 82 336 6.0 10.0 0.00 0.02 0.02 66 1009.4
20260905020740 82 342 5.0 9.0 0.00 0.02 0.02 67 1009.4
20260905020233 82 333 5.0 9.0 0.00 0.02 0.02 68 1009.4
20260905020003 82 353 4.0 8.0 0.00 0.02 0.02 70 1009.6
20260905015438 82 310 5.0 7.0 0.00 0.02 0.02 70 1009.6
20260905014651 82 332 5.0 9.0 0.00 0.02 0.02 70 1009.6
20260905014137 82 346 5.0 9.0 0.00 0.02 0.02 70 1009.6
20260905013640 82 334 4.0 7.0 0.00 0.02 0.02 70 1009.6
20260905013114 82 339 5.0 10.0 0.00 0.02 0.02 70 1009.6
20260905012611 82 318 5.0 10.0 0.00 0.02 0.02 70 1009.6
20260905012044 82 344 5.0 9.0 0.00 0.02 0.02 70 1009.6
20260905011806 82 318 4.0 8.0 0.00 0.02 0.02 71 1009.6
20260905011038 82 308 4.0 7.0 0.00 0.02 0.02 71 1009.4
20260905010535 82 307 3.0 7.0 0.00 0.02 0.02 71 1009.4
20260905010012 82 305 3.0 5.0 0.00 0.02 0.02 71 1009.4
20260905005504 82 317 4.0 6.0 0.00 0.02 0.02 71 1009.1
20260905004938 82 334 4.0 6.0 0.00 0.02 0.02 70 1009.1
20260905004426 83 326 3.0 6.0 0.00 0.02 0.02 70 1009.0
20260905003927 83 334 4.0 7.0 0.00 0.02 0.02 70 1009.0
20260905003628 83 317 4.0 7.0 0.00 0.02 0.02 70 1009.0
20260905002850 83 331 3.0 6.0 0.00 0.02 0.02 70 1009.0
20260905002314 83 301 3.0 6.0 0.00 0.02 0.02 70 1009.0
20260905001753 83 330 4.0 6.0 0.00 0.02 0.02 69 1008.9
20260905001228 83 296 4.0 6.0 0.00 0.02 0.02 69 1009.0
20260905000705 83 307 4.0 7.0 0.00 0.02 0.02 69 1009.1
20260905000149 83 309 4.0 7.0 0.00 0.02 0.02 68 1009.1
20260904235906 83 330 4.0 7.0 0.00 0.02 0.02 68 1009.1
20260904235148 83 302 4.0 7.0 0.00 0.02 0.02 68 1009.1
20260904234644 83 338 4.0 7.0 0.00 0.02 0.02 68 1009.1
20260904234132 83 310 4.0 7.0 0.00 0.02 0.02 68 1009.3
20260904233627 83 313 4.0 6.0 0.00 0.02 0.02 69 1009.3
20260904233127 84 317 4.0 6.0 0.00 0.02 0.02 69 1009.3
20260904232853 84 304 5.0 7.0 0.00 0.02 0.02 67 1009.2
20260904232123 84 310 5.0 7.0 0.00 0.02 0.02 66 1009.2
20260904231623 84 303 5.0 7.0 0.00 0.02 0.02 66 1009.2
20260904231329 84 281 6.0 9.0 0.00 0.02 0.02 66 1009.4
20260904230612 84 311 6.0 10.0 0.00 0.02 0.02 65 1009.4
20260904230058 85 308 6.0 10.0 0.00 0.02 0.02 65 1009.4
20260904225825 85 305 7.0 11.0 0.00 0.02 0.02 65 1009.4
20260904225312 85 312 9.0 14.0 0.00 0.02 0.02 63 1009.4
20260904224758 85 290 9.0 14.0 0.00 0.02 0.02 63 1009.4
20260904224024 85 332 9.0 13.0 0.00 0.02 0.02 62 1009.2
20260904223524 85 294 9.0 13.0 0.00 0.02 0.02 62 1009.2
20260904222953 85 303 8.0 12.0 0.00 0.02 0.02 63 1009.2
20260904222452 85 319 9.0 12.0 0.00 0.02 0.02 62 1009.2
20260904221952 85 301 9.0 13.0 0.00 0.02 0.02 62 1009.2
20260904221452 86 309 10.0 13.0 0.00 0.02 0.02 61 1009.2
20260904221210 86 290 10.0 14.0 0.00 0.02 0.02 60 1009.2
20260904220453 86 298 10.0 14.0 0.00 0.02 0.02 60 1009.2
20260904220213 86 301 9.0 14.0 0.00 0.02 0.02 61 1009.2
20260904215453 85 336 5.0 14.0 0.00 0.02 0.02 66 1009.3
20260904214937 84 298 3.0 9.0 0.00 0.02 0.02 68 1009.3
20260904214424 82 319 5.0 9.0 0.00 0.02 0.02 70 1009.2
20260904213925 81 147 7.0 10.0 0.00 0.02 0.02 72 1009.2
20260904213407 81 119 7.0 10.0 0.00 0.02 0.02 72 1009.2
20260904212908 82 141 6.0 10.0 0.00 0.02 0.02 71 1009.0
20260904212606 82 133 6.0 10.0 0.00 0.02 0.02 70 1009.0
20260904211819 82 143 7.0 12.0 0.00 0.02 0.02 70 1009.0
20260904211320 82 121 7.0 12.0 0.00 0.02 0.02 71 1009.1
20260904210755 82 148 7.0 12.0 0.00 0.02 0.02 71 1009.1
20260904210253 82 143 8.0 12.0 0.00 0.02 0.02 72 1009.1
20260904205726 82 164 7.0 13.0 0.00 0.02 0.02 72 1009.3
20260904205159 82 178 9.0 15.0 0.00 0.02 0.02 73 1009.3
20260904204656 82 170 9.0 15.0 0.00 0.02 0.02 72 1009.3
20260904204153 82 172 8.0 13.0 0.00 0.02 0.02 74 1009.5
20260904204144 81 148 9.0 15.0 0.00 0.02 0.02 76 1009.5
20260904203124 82 155 10.0 15.0 0.00 0.02 0.02 75 1009.5
20260904202621 82 181 10.0 16.0 0.00 0.02 0.02 75 1009.6
20260904202342 81 172 11.0 16.0 0.00 0.02 0.02 75 1009.6
20260904201820 82 159 8.0 14.0 0.00 0.02 0.02 76 1009.6
20260904201029 83 172 6.0 12.0 0.00 0.02 0.02 75 1009.6
20260904200531 82 150 7.0 13.0 0.00 0.02 0.02 75 1009.6
20260904200004 82 170 7.0 13.0 0.00 0.02 0.02 76 1009.6
20260904195704 82 196 6.0 12.0 0.00 0.02 0.02 76 1009.9
20260904194939 82 190 5.0 10.0 0.00 0.02 0.02 75 1009.9
20260904194414 82 147 5.0 10.0 0.00 0.02 0.02 75 1010.1
20260904193859 82 191 5.0 9.0 0.00 0.02 0.02 75 1010.1
20260904193359 83 115 5.0 9.0 0.00 0.02 0.02 73 1010.1
20260904193054 82 199 5.0 10.0 0.00 0.02 0.02 73 1010.1
20260904192530 82 189 3.0 10.0 0.00 0.02 0.02 75 1010.1
20260904192418 82 214 4.0 10.0 0.00 0.02 0.02 75 1010.1
20260904191305 82 226 4.0 10.0 0.00 0.02 0.02 74 1010.1
20260904190805 82 125 5.0 9.0 0.00 0.02 0.02 73 1010.1
20260904190251 82 157 4.0 9.0 0.00 0.02 0.02 71 1010.1
20260904185752 83 174 6.0 10.0 0.00 0.02 0.02 72 1010.1
20260904185241 81 119 7.0 10.0 0.00 0.02 0.02 73 1010.1
20260904185228 82 147 5.0 9.0 0.00 0.02 0.02 74 1010.1
20260904184236 82 134 5.0 9.0 0.00 0.02 0.02 75 1010.2
20260904183722 82 144 5.0 9.0 0.00 0.02 0.02 74 1010.2
20260904183224 81 138 5.0 8.0 0.00 0.02 0.02 74 1010.2
20260904182718 82 130 4.0 7.0 0.00 0.02 0.02 73 1010.3
20260904182711 82 105 3.0 6.0 0.00 0.02 0.02 73 1010.3
20260904181650 83 163 4.0 6.0 0.00 0.02 0.02 70 1010.3
20260904181119 82 69 5.0 7.0 0.00 0.02 0.02 69 1010.4
20260904180620 82 121 5.0 8.0 0.00 0.02 0.02 71 1010.4
20260904180119 82 80 5.0 8.0 0.00 0.02 0.02 69 1010.4
20260904175619 82 103 5.0 8.0 0.00 0.02 0.02 71 1010.4
20260904175120 82 107 5.0 7.0 0.00 0.02 0.02 71 1010.4
20260904174618 83 120 5.0 7.0 0.00 0.02 0.02 68 1010.4
20260904174047 83 103 5.0 7.0 0.00 0.02 0.02 69 1010.3
20260904173532 82 104 4.0 7.0 0.00 0.02 0.02 68 1010.3
20260904173018 82 110 4.0 6.0 0.00 0.02 0.02 69 1010.3
20260904172516 82 82 5.0 7.0 0.00 0.02 0.02 69 1010.4
20260904172013 82 68 5.0 7.0 0.00 0.02 0.02 68 1010.4
20260904171515 82 99 5.0 7.0 0.00 0.02 0.02 68 1010.4
20260904170954 82 77 5.0 8.0 0.00 0.02 0.02 70 1010.2
20260904170455 82 88 6.0 11.0 0.00 0.02 0.02 69 1010.2
20260904165941 82 70 7.0 11.0 0.00 0.02 0.02 69 1010.2
20260904165443 83 93 7.0 10.0 0.00 0.02 0.02 69 1010.1
20260904164921 83 80 7.0 10.0 0.00 0.02 0.02 68 1010.1
20260904164352 83 80 7.0 10.0 0.00 0.02 0.02 69 1010.3
20260904163850 83 66 6.0 11.0 0.00 0.02 0.02 69 1010.3
20260904163346 83 70 5.0 11.0 0.00 0.02 0.02 67 1010.3
20260904162843 85 80 7.0 13.0 0.00 0.02 0.02 66 1010.6
20260904162341 88 22 8.0 17.0 0.00 0.02 0.02 60 1010.6
20260904161814 90 359 6.0 17.0 0.00 0.02 0.02 53 1010.6
20260904161318 89 8 8.0 14.0 0.00 0.02 0.02 55 1010.7
20260904160803 89 6 8.0 14.0 0.00 0.02 0.02 55 1010.7
20260904160257 88 353 8.0 13.0 0.00 0.02 0.02 57 1010.7
20260904155753 87 351 9.0 14.0 0.00 0.02 0.02 57 1010.7
20260904155255 88 348 10.0 14.0 0.00 0.02 0.02 58 1010.7
20260904154957 88 348 10.0 14.0 0.00 0.02 0.02 58 1010.7
20260904154236 87 346 10.0 16.0 0.00 0.02 0.02 59 1010.7
20260904154002 87 5 11.0 16.0 0.00 0.02 0.02 60 1010.7
20260904153212 87 357 11.0 16.0 0.00 0.02 0.02 59 1010.7
20260904152714 87 1 11.0 19.0 0.00 0.02 0.02 58 1010.7
20260904152158 87 338 12.0 19.0 0.00 0.02 0.02 59 1010.7
20260904151656 87 349 12.0 18.0 0.00 0.02 0.02 59 1010.7
20260904151139 87 327 12.0 16.0 0.00 0.02 0.02 58 1010.7
20260904150848 87 344 11.0 15.0 0.00 0.02 0.02 59 1010.7
20260904150111 87 3 10.0 16.0 0.00 0.02 0.02 60 1010.7
20260904145610 87 342 10.0 17.0 0.00 0.02 0.02 60 1010.7
20260904145108 87 319 9.0 17.0 0.00 0.02 0.02 61 1010.7
20260904144835 87 343 8.0 14.0 0.00 0.02 0.02 62 1010.7
20260904144049 87 354 8.0 14.0 0.00 0.02 0.02 62 1010.7
20260904143540 86 358 9.0 14.0 0.00 0.02 0.02 63 1010.7
20260904143040 86 344 9.0 14.0 0.00 0.02 0.02 63 1010.7
20260904142516 86 344 9.0 15.0 0.00 0.02 0.02 64 1010.8
20260904142227 85 334 9.0 15.0 0.00 0.02 0.02 65 1010.8
20260904141734 85 322 9.0 15.0 0.00 0.02 0.02 65 1010.8
20260904141205 85 6 10.0 17.0 0.00 0.02 0.02 66 1010.7
20260904140438 85 338 10.0 17.0 0.00 0.02 0.02 66 1010.7
20260904135940 85 333 11.0 18.0 0.00 0.02 0.02 67 1010.6
20260904135853 84 7 12.0 18.0 0.00 0.02 0.02 67 1010.6
20260904134906 84 352 11.0 17.0 0.00 0.02 0.02 68 1010.6
20260904134409 84 329 11.0 17.0 0.00 0.02 0.02 68 1010.3
20260904133856 84 328 10.0 17.0 0.00 0.02 0.02 69 1010.3
20260904133355 84 290 10.0 14.0 0.00 0.02 0.02 70 1010.3
20260904132855 84 288 10.0 16.0 0.00 0.02 0.02 70 1010.3
20260904132324 83 313 10.0 16.0 0.00 0.02 0.02 71 1010.3
20260904131808 83 311 12.0 18.0 0.00 0.02 0.02 72 1010.3
20260904131303 82 304 13.0 19.0 0.00 0.02 0.02 73 1010.2
20260904131023 82 308 11.0 19.0 0.00 0.02 0.02 73 1010.2
20260904130250 82 311 9.0 15.0 0.00 0.02 0.02 75 1010.2
20260904125750 82 283 9.0 12.0 0.00 0.02 0.02 76 1010.3
20260904125251 81 328 9.0 14.0 0.00 0.02 0.02 78 1010.3
20260904124727 80 275 8.0 14.0 0.00 0.02 0.02 79 1010.3
20260904124207 80 278 8.0 13.0 0.00 0.02 0.02 79 1010.2
20260904123642 80 295 8.0 12.0 0.00 0.02 0.02 80 1010.2
20260904123140 80 269 7.0 12.0 0.00 0.02 0.02 81 1010.2
20260904122641 79 288 7.0 12.0 0.00 0.02 0.02 82 1010.2
20260904122410 78 271 7.0 11.0 0.00 0.02 0.02 83 1010.2
20260904121615 78 280 7.0 11.0 0.00 0.02 0.02 84 1010.2
20260904121112 77 269 8.0 13.0 0.00 0.02 0.02 84 1010.2
20260904120559 77 270 9.0 13.0 0.00 0.02 0.02 84 1010.2
20260904115537 77 259 8.0 14.0 0.00 0.02 0.02 85 1010.1
20260904115009 76 284 9.0 15.0 0.00 0.02 0.02 85 1010.1
20260904114505 76 244 8.0 15.0 0.00 0.02 0.02 86 1010.1
20260904113940 76 284 9.0 13.0 0.00 0.02 0.02 86 1010.0
20260904113420 76 248 8.0 13.0 0.00 0.02 0.02 86 1010.0
20260904112915 76 266 9.0 14.0 0.00 0.02 0.02 86 1009.7
20260904112413 76 265 9.0 14.0 0.00 0.02 0.02 86 1009.7
20260904111912 76 254 8.0 12.0 0.00 0.02 0.02 86 1009.7
20260904111351 76 259 9.0 13.0 0.00 0.02 0.02 86 1009.7
20260904110824 76 251 9.0 13.0 0.00 0.02 0.02 86 1009.7
20260904110321 76 274 8.0 14.0 0.00 0.02 0.02 86 1009.7
20260904105758 76 262 8.0 12.0 0.00 0.02 0.02 86 1009.6
20260904105243 76 274 7.0 12.0 0.00 0.02 0.02 86 1009.6
20260904104745 76 254 8.0 15.0 0.00 0.02 0.02 86 1009.6
20260904104223 76 269 10.0 15.0 0.00 0.02 0.02 86 1009.5
20260904103722 76 267 10.0 17.0 0.00 0.02 0.02 86 1009.5
20260904103221 76 255 10.0 17.0 0.00 0.03 0.02 86 1009.5
20260904102927 76 299 9.0 15.0 0.00 0.03 0.02 86 1009.5
20260904102142 76 281 9.0 15.0 0.00 0.03 0.02 86 1009.5
20260904101635 76 241 8.0 15.0 0.00 0.04 0.02 86 1009.5
20260904101138 76 294 8.0 15.0 0.00 0.04 0.02 86 1009.5
20260904100831 76 267 8.0 15.0 0.00 0.05 0.02 86 1009.5
20260904100546 76 284 9.0 15.0 0.00 0.06 0.02 86 1009.5